Location: Bremen
(53.0830°N, 8.8000°E)
Time: 21:03:00
(UTC+01:00)

Envisat - Visible Passes

Search period start: 09 November 2025 00:00
Search period end: 19 November 2025 00:00
Orbit: 761 x 763 km, 98.4° (Epoch: 08 November)

Date Brightness Start Highest point End Pass type
(mag) Time Alt. Az. Time Alt. Az. Time Alt. Az.
09 Nov 5.2 03:54:23 10° N 03:55:30 17° N 03:55:30 17° N visible
09 Nov 5.1 05:34:58 10° NNW 05:35:37 11° NNW 05:35:37 11° NNW visible
10 Nov 5.6 03:16:33 10° NNE 03:17:12 14° NNE 03:17:12 14° NNE visible
10 Nov 5.0 04:56:13 10° N 04:57:19 15° NNW 04:57:19 15° NNW visible
11 Nov 5.2 04:17:59 10° N 04:19:01 16° N 04:19:01 16° N visible
12 Nov 5.5 03:40:01 10° NNE 03:40:42 14° NNE 03:40:42 14° NNE visible
12 Nov 5.1 05:20:12 10° NNW 05:20:50 12° NNW 05:20:50 12° NNW visible
13 Nov 5.9 03:02:18 10° NNE 03:02:25 11° NNE 03:02:25 11° NNE visible
13 Nov 5.2 04:41:43 10° N 04:42:32 14° N 04:42:32 14° N visible
14 Nov 5.4 04:03:35 10° N 04:04:14 14° N 04:04:14 14° N visible
15 Nov 5.7 03:25:43 10° NNE 03:25:56 11° NNE 03:25:56 11° NNE visible
15 Nov 5.2 05:05:34 10° N 05:06:03 12° NNW 05:06:03 12° NNW visible
16 Nov 5.3 04:27:14 10° N 04:27:45 13° N 04:27:45 13° N visible
17 Nov 5.6 03:49:13 10° N 03:49:28 11° N 03:49:28 11° N visible
18 Nov 5.3 04:51:00 10° N 04:51:17 11° N 04:51:17 11° N visible
